Showing default

OV1-9, 2610

Orbit data source: Space-Track

OV1-9, 2610 is a payload satellite owned by USAF OAR (US) in LEO that was launched on Sun, 11 Dec 1966 UTC via an ATLAS D launch vehicle from the Air Force Western Test Range (AFWTR). Payloads include a variety of satellites, spacecraft, and rockets equipped with specific instruments for various scientific and technological missions. These include communications satellites like Starlink; space stations such as the ISS; scientific satellites like the Hubble; Earth observation satellites from companies like Planet Labs, Umbra, and HawkEye 360; GPS; miniature CubeSats for education and research; and military/defense satellites.

Loading next visibility...
OV1-9 details
Identifier
2610, 1966-111A
Orbit
LEO
Last TLE update21 hours ago
Origin
Flag of USUSAF OAR (US)
ManufacturerGD/Convair
MissionDefense Technology
Bus & MotorOV1, Unknown motor
Mass106 kg wet, 106 kg dry
Launch date (UTC)
1966-12-11 (58 years ago)
Launch vehicle
ATLAS D
Launch site
Air Force Western Test Range (AFWTR)
Object type
Payload
Rocket body
Debris
Shape & HBRDomed Cyl, 1.4 m
Radar Cross Section0.946 m², Medium (>0.1 m² and < 1m²)

Expand to show TLE details & history

TLE from 21 hours ago
0 OV1-9
1 02610U 66111A   24355.68493762  .00000897  00000-0  35940-3 0  9996
2 02610  99.1016  35.7814 2276181 128.2549 254.6131 10.38894410176568
Epoch: 2024-12-20T16:26Z
Definitive object data (Epoch: 2024-12-20T16:26:18.61Z)
Latitude0.00003°
Longitude59.45695°
Altitude3,413.661 km
Speed6.042 km/s
True Right ascension02h 23m 07s
True Declination0° 00' 00"
Sunlit
Object was in daylight at TLE epoch
Visualization TLE readout
Latitude-29.99882°
Longitude65.21693°
Altitude4,279.299 km
Speed5.469 km/s
Apparent Right ascension01h 49m 44s
Apparent Declination-35° 10' 54"
Sunlit
Object is in daylight
Visualization observer readout
Local Sidereal Time12:00:20
Azimuth273.643° WNW
Elevation-67.897°
Doppler factor1
Orbital elements
Apogee altitude4,510.23 km
Perigee altitude472.509 km
Semi-major axis8,869.507 km
Eccentricity0.2276181
Inclination99.1016°
RAAN35.7814°
Arg. of periapsis128.2549°
True anomaly231.84089°
Mean anomaly254.6131°
Eccentric anomaly242.99364°
Mean motion2.59833 °/min
BSTAR0.0003594
Orbital period138.55 mins
Loading maneuver chart data...
Loading historical data...
Loading historical data...
Loading historical data...
Loading historical data...
Loading historical data...
Loading historical data...
Loading historical data...
Other satellites on launch #111 in the year 1966 (1966-12-11 UTC)

OV1-9 Visibility forecast

Observer location: undefined°, undefined

Span
Click to sort rows by Start time (UTC) header in descending order
Start Az.
Max El. time (UTC)
Max El. Az.
Max El.
End time (UTC)
End Az.
5 mins2024-12-21 16:13:26.986Z354.692° N2024-12-21 16:15:26.986Z302.853° NW34.306°2024-12-21 16:18:26.986Z217.729° SW
14 mins2024-12-22 00:57:26.986Z113.404° SE2024-12-22 01:05:26.986Z71.173° E23.747°2024-12-22 01:11:26.986Z17.741° NNE
21 mins2024-12-22 03:08:26.986Z175.309° S2024-12-22 03:22:26.986Z260.07° W42.335°2024-12-22 03:29:26.986Z336.671° NNW
|